Location: �terpigny
(49.8910°N, 2.9249°E)
Time: 03:22:14
(UTC+00:00)

N. Korean satellite - Visible Passes

Search period start: 20 January 2022 00:00
Search period end: 30 January 2022 00:00
Orbit: 446 x 491 km, 97.3° (Epoch: 19 January)

Date Brightness Start Highest point End Pass type
(mag) Time Alt. Az. Time Alt. Az. Time Alt. Az.
20 Jan 9.7 04:02:59 10° NE 04:04:11 13° ENE 04:04:11 13° ENE visible
20 Jan 6.7 05:34:57 10° N 05:38:15 50° WNW 05:38:15 50° WNW visible
21 Jan 6.8 05:05:46 10° NNE 05:09:09 69° ENE 05:09:09 69° ENE visible
21 Jan 8.5 06:40:33 10° NW 06:42:01 12° WNW 06:43:13 11° W visible
21 Jan 9.8 17:18:41 10° WSW 17:20:30 14° W 17:22:22 10° WNW visible
22 Jan 8.3 04:36:50 10° NNE 04:40:04 33° E 04:40:04 33° E visible
22 Jan 7.8 06:10:17 10° NNW 06:13:10 22° WNW 06:14:07 20° W visible
23 Jan 9.5 04:08:25 10° NE 04:10:48 16° E 04:10:57 16° E visible
23 Jan 6.8 05:40:41 10° N 05:44:10 44° WNW 05:45:01 36° WSW visible
24 Jan 6.5 05:11:22 10° NNE 05:15:02 85° ESE 05:15:55 50° S visible
24 Jan 8.6 06:46:41 10° NW 06:47:35 11° WNW 06:48:29 10° WNW visible
24 Jan 10.0 17:24:45 10° WSW 17:26:10 12° W 17:27:36 10° WNW visible
25 Jan 8.0 04:42:20 10° NNE 04:45:46 38° E 04:46:48 31° SE visible
25 Jan 7.9 06:15:59 10° NNW 06:18:41 20° WNW 06:20:51 13° WSW visible
26 Jan 9.3 04:13:43 10° NE 04:16:22 19° E 04:17:41 16° ESE visible
26 Jan 7.0 05:46:15 10° N 05:49:40 38° WNW 05:51:45 20° SW visible
27 Jan 6.4 05:16:50 10° NNE 05:20:30 83° WNW 05:22:39 23° SSW visible
27 Jan 10.2 17:30:54 10° W 17:31:39 10° W 17:32:24 10° WNW visible
28 Jan 7.7 04:47:41 10° NNE 04:51:12 44° E 04:53:33 18° SSE visible
28 Jan 8.1 06:21:33 10° NNW 06:24:03 18° WNW 06:26:32 10° WSW visible
29 Jan 9.1 04:18:55 10° NE 04:21:46 21° E 04:24:28 11° SE visible
29 Jan 7.2 05:51:40 10° N 05:54:59 33° WNW 05:58:17 10° SW visible
